Weather in Noosa Heads

Australia     26°23′45″S   153°05′25″E
temp.,
°C
wind,
m/s
gust,
m/s
humid.,
%
clouds,
%
prec.,
mm/h
press.,
hPa
HPBL,
m
24 april, sat
sat2401:00+11wsw11870 0.0 102030
04:00+12ssw118521 0.0 101924
07:00+13ssw12845 0.0 102169
10:00+21se23591 0.0 1022991
13:00+23ese335138 0.0 10191721
16:00+21ese34562 0.0 10191087
19:00+15sse12780 0.0 102154
22:00+15ssw11840 0.0 102247
25 april, sun
sun2501:00+13sw12904 0.0 102157
04:00+12sw11956 0.0 102028
07:00+14sw12891 0.0 102258
10:00+22se23570 0.0 10221142
13:00+23ese33490 0.0 10191716
16:00+21ese34640 0.0 1019750
19:00+16s13880 0.0 102165
22:00+15s12903 0.0 102258
26 april, mon
mon2601:00+14ssw139344 0.0 102180
04:00+16ssw258286 0.0 1021259
07:00+15ssw27928 0.0 1023225
10:00+22sse36615 0.1 10231253
13:00+22sse46599 0.4 10211477
16:00+19sse387661 1.0 1021668
19:00+16s24860 0.1 1023116
22:00+15ssw249475 0.4 1023124
27 april, tue
tue2701:00+15s259532 0.4 1023213
04:00+14ssw259825 0.8 1022169
07:00+15ssw399579 0.1 1024356
10:00+20sse377828 1.1 1024913
13:00+19sse4108258 2.3 1022878
16:00+21sse485815 2.8 10221553
19:00+18sse37700 0.0 1023396
22:00+17ssw2678100 0.2 1023335
28 april, wed
wed2801:00+17ssw298157 0.1 1022414
04:00+14ssw288928 0.3 1021263
07:00+15s298952 0.3 1023365
10:00+20sse377297 0.6 1023883
13:00+20sse378651 1.9 1021964
16:00+19sse39905 3.6 1020623
19:00+16s259628 0.5 1022179
22:00+15s2498100 1.6 1023111